sat.trackr.live / text

‹ back to catalog

STARLINK-31149

NORAD 58863 · 2024-019L

PAYLOAD ACTIVE UNKNOWN

§ Identity

Operator
Country
US
Launch date
2024-01-29
Launch site
AFETR
Launch vehicle
Mass (kg)
RCS (m²)

Purposes: comms

External: N2YO · Heavens-Above · Gunter

§ Orbital elements

Epoch: 2026-09-20T07:40:33.843360Z

Period
94.27 min
Inclination
43.0009°
Eccentricity
0.0001170
Mean motion
15.27584065 rev/d
Perigee alt
482.2 km
Apogee alt
483.8 km
Semi-major
6,861.2 km
B*
4.9116e-6
RAAN
229.3216°
Arg perigee
266.0577°
Mean anomaly
94.0141°
Rev number
14,885

§ Raw data

STARLINK-311491 58863U 24019L   26263.31983615 -.00000127  00000+0  49116-5 0  99972 58863  43.0009 229.3216 0001170 266.0577  94.0141 15.27584065148853

JSON: /api/v1/satellites/58863 · /tle

For live sub-satellite position, see the globe view (requires WebGL).

§ Visibility from observer

Set your observer location to see the next 7 days of passes ≥ 10°. The values pass through the URL so the page stays shareable.

No JS? Fill the form by hand. The geolocation button needs JavaScript.